Location: The Saddle
(36.8333°N, 80.3417°W)
Time: 15:30:04
(UTC-05:00)

deb Explorer IX - All Passes

Search period start: 30 January 2023 00:00
Search period end: 09 February 2023 00:00
Orbit: 534 x 1049 km, 38.8° (Epoch: 30 January)

Date Brightness Start Highest point End Pass type
(mag) Time Alt. Az. Time Alt. Az. Time Alt. Az.
30 Jan - 03:50:42 10° S 03:52:36 13° SE 03:54:27 10° ESE visible
30 Jan - 05:34:09 10° SW 05:38:09 53° SSE 05:42:05 10° E visible
30 Jan - 07:20:08 10° W 07:24:09 69° N 07:28:19 10° ENE daylight
30 Jan - 09:06:13 10° WNW 09:10:21 83° N 09:14:54 10° E daylight
30 Jan - 10:52:16 10° W 10:56:19 37° SSW 11:00:52 10° SE daylight
31 Jan - 03:18:41 10° SSE 03:20:10 11° SE 03:21:36 10° SE night (unlit)
31 Jan - 05:01:41 10° SW 05:05:43 48° SSE 05:09:36 10° E visible
31 Jan - 06:47:39 10° W 06:51:41 70° N 06:55:47 10° ENE visible
31 Jan - 08:33:49 10° WNW 08:37:52 79° N 08:42:16 10° E daylight
31 Jan - 10:19:51 10° W 10:23:51 39° SSW 10:28:17 10° SE daylight
01 Feb - 02:46:52 10° SSE 02:47:41 10° SE 02:48:31 10° SE night (unlit)
01 Feb - 04:29:10 10° SW 04:33:16 44° SSE 04:37:07 10° E visible
01 Feb - 06:15:08 10° W 06:19:13 73° N 06:23:15 10° ENE visible
01 Feb - 08:01:22 10° WNW 08:05:23 75° N 08:09:38 10° E daylight
01 Feb - 09:47:24 10° W 09:51:21 43° SSW 09:55:41 10° SE daylight
01 Feb - 11:35:56 10° SW 11:37:00 11° SW 11:38:05 10° SSW daylight
02 Feb - 03:56:38 10° SW 04:00:47 40° SSE 04:04:39 10° E visible
02 Feb - 05:42:33 10° W 05:46:43 76° N 05:50:44 10° ENE visible
02 Feb - 07:28:53 10° WNW 07:32:54 72° N 07:37:02 10° E daylight
02 Feb - 09:14:57 10° W 09:18:52 46° SSW 09:23:06 10° SE daylight
02 Feb - 11:02:57 10° SW 11:04:29 12° SW 11:06:05 10° SSW daylight
03 Feb - 03:24:03 10° SW 03:28:18 37° SSE 03:32:09 10° E night (unlit)
03 Feb - 05:09:56 10° W 05:14:12 80° NNW 05:18:14 10° ENE visible
03 Feb - 06:56:20 10° WNW 07:00:23 70° N 07:04:26 10° E visible
03 Feb - 08:42:27 10° W 08:46:22 50° SSW 08:50:31 10° SE daylight
03 Feb - 10:30:06 10° WSW 10:31:59 13° SW 10:33:56 10° S daylight
04 Feb - 02:51:26 10° SW 02:55:46 35° SSE 02:59:39 10° E night (unlit)
04 Feb - 04:37:16 10° WSW 04:41:40 84° NNW 04:45:45 10° ENE visible
04 Feb - 06:23:45 10° WNW 06:27:51 68° N 06:31:52 10° E visible
04 Feb - 08:09:55 10° W 08:13:52 55° SSW 08:17:57 10° SE daylight
04 Feb - 09:57:18 10° WSW 09:59:27 14° SW 10:01:42 10° S daylight
05 Feb - 02:18:47 10° SW 02:23:12 32° SSE 02:27:08 10° E night (unlit)
05 Feb - 04:04:32 10° WSW 04:09:07 88° NNW 04:13:15 10° ENE visible
05 Feb - 05:51:07 10° W 05:55:19 67° N 05:59:19 10° E visible
05 Feb - 07:37:21 10° W 07:41:21 60° SSW 07:45:23 10° ESE daylight
05 Feb - 09:24:31 10° WSW 09:26:56 15° SW 09:29:25 10° S daylight
06 Feb - 01:46:06 10° SSW 01:50:36 30° SSE 01:54:36 10° E night (unlit)
06 Feb - 03:31:47 10° WSW 03:36:32 87° SSE 03:40:46 10° ENE visible
06 Feb - 05:18:26 10° W 05:22:44 66° N 05:26:45 10° E visible
06 Feb - 07:04:45 10° WNW 07:08:48 66° SSW 07:12:49 10° ESE daylight
06 Feb - 08:51:45 10° WSW 08:54:24 17° SSW 08:57:06 10° S daylight
07 Feb - 01:13:24 10° SSW 01:17:58 28° SSE 01:22:01 10° E night (unlit)
07 Feb - 02:58:58 10° WSW 03:03:56 82° SSE 03:08:15 10° ENE night (unlit)
07 Feb - 04:45:41 10° W 04:50:08 66° N 04:54:13 10° E visible
07 Feb - 06:32:06 10° WNW 06:36:15 72° SSW 06:40:15 10° ESE visible
07 Feb - 08:18:59 10° WSW 08:21:51 19° SSW 08:24:45 10° SSE daylight
08 Feb - 00:40:40 10° SSW 00:45:18 27° SSE 00:49:25 10° E night (unlit)
08 Feb - 02:26:08 10° WSW 02:31:17 77° SSE 02:35:44 10° ENE night (unlit)
08 Feb - 04:12:53 10° W 04:17:31 67° N 04:21:40 10° E visible
08 Feb - 05:59:24 10° WNW 06:03:40 79° SSW 06:07:41 10° ESE visible
08 Feb - 07:46:13 10° W 07:49:18 21° SSW 07:52:23 10° SSE daylight
